Theta_e
302 299 297 298 298 297 297 296 295 297 300 298 298 299 304 309 312 312 313 313 315 316 319 319 322 323 323 325 324 326 325 324 323 322 323 322 323 322 322 321 319 316 315 315
299 296 299 299 299 298 298 296 295 298 299 298 297 298 302 307 310 312 313 314 314 316 318 319 321 323 324 323 324 325 325 324 324 325 324 323 322 320 321 319 316 314 314 315
296 298 300 300 299 297 297 295 295 295 297 298 296 295 297 303 308 312 314 316 317 316 317 319 319 322 323 324 323 324 325 324 324 324 321 318 318 316 315 315 312 314 314 314
298 300 299 298 297 298 294 299 297 296 294 291 295 289 294 299 303 307 311 314 316 318 318 318 319 320 322 323 324 325 324 323 323 322 321 319 317 313 315 313 312 313 315 313
296 297 297 296 297 299 297 299 298 297 294 293 292 291 295 298 298 303 308 311 315 318 319 317 317 319 322 323 322 324 324 323 322 322 322 320 317 317 316 312 313 313 313 312
298 301 301 300 300 300 300 298 296 295 294 289 291 291 293 296 299 303 306 310 313 316 319 320 319 319 320 322 322 323 323 322 322 322 321 320 317 315 313 312 311 311 311 310
295 297 300 302 298 300 298 295 289 287 287 287 293 291 295 299 300 301 304 308 312 315 316 318 316 316 319 319 321 321 322 320 322 321 321 321 318 316 315 312 312 310 309 307
291 289 297 300 299 297 296 295 290 282 283 287 291 289 295 301 303 304 305 305 309 312 314 315 317 317 319 320 321 321 320 321 322 321 321 321 319 315 315 314 313 311 310 308
289 290 299 301 301 300 296 293 296 289 288 287 290 293 298 299 301 304 306 309 306 309 311 313 315 318 319 320 321 321 321 321 321 320 322 321 317 315 315 314 313 311 308 305
295 290 297 300 301 300 299 300 292 291 283 282 287 287 291 297 299 302 305 308 308 307 310 313 315 318 320 322 322 323 323 322 320 321 322 320 318 318 315 312 308 307 306 306
296 294 292 298 297 296 296 294 293 293 290 286 284 289 297 298 300 301 304 307 309 310 311 313 317 319 321 322 323 322 322 320 319 320 320 318 316 314 311 309 306 306 306 302
298 294 289 293 298 299 298 296 296 291 287 288 287 288 299 300 300 300 303 305 308 312 314 316 318 320 320 321 321 321 319 317 317 314 313 310 308 308 308 306 306 306 302 304
298 292 287 289 293 298 296 295 295 293 291 288 288 290 298 299 300 302 302 305 306 310 313 316 317 318 319 319 318 319 315 310 308 308 306 306 306 305 304 304 303 302 301 302
300 293 291 287 290 294 292 294 294 295 289 290 290 293 297 299 299 301 302 303 303 308 311 315 316 317 318 317 317 313 309 307 305 305 304 304 304 304 302 301 300 297 296 297
300 292 292 292 292 294 294 294 293 293 294 291 294 291 296 299 301 301 301 300 300 303 308 312 315 315 312 311 310 308 306 306 307 305 304 302 300 297 296 295 296 295 297 297
297 293 292 291 292 293 292 293 293 293 293 293 292 292 298 300 300 298 298 299 299 301 304 309 311 309 307 306 306 305 306 306 305 303 300 297 295 294 294 294 293 295 296 295
294 292 290 288 290 291 287 292 293 294 295 295 291 297 298 297 297 298 299 299 302 304 305 306 308 308 306 305 305 305 305 305 303 300 296 294 293 293 293 293 295 294 294 295
293 292 289 287 285 282 294 296 296 295 295 296 295 296 298 297 297 295 294 298 302 303 303 303 304 304 304 305 304 303 301 298 295 293 292 292 293 292 292 295 294 294 294 294
297 291 286 286 286 289 292 294 294 293 293 297 296 296 297 297 297 295 292 292 295 297 298 299 300 299 299 299 298 298 296 293 291 290 291 293 293 292 295 294 294 294 293 293
293 293 292 284 284 282 292 295 297 297 289 297 297 297 297 297 295 297 291 291 291 293 294 293 293 294 295 295 296 294 291 291 291 292 293 293 293 294 293 293 293 293 292 291
288 287 287 283 286 288 294 295 297 290 293 297 298 299 298 296 296 292 290 289 290 291 291 292 293 292 292 294 294 292 293 292 293 293 294 293 293 292 292 291 291 291 291 290
290 288 287 285 285 285 297 294 292 298 297 297 298 299 297 291 289 289 289 288 289 289 290 291 290 290 292 293 293 291 291 292 292 292 291 290 290 289 289 290 290 290 289 288
290 294 291 292 293 300 298 300 299 299 300 299 299 298 294 290 289 289 287 288 288 289 290 292 291 290 291 292 292 289 289 291 290 289 288 287 287 286 286 286 286 285 285 284
294 296 294 295 297 297 298 299 300 299 300 300 300 297 294 292 289 288 287 287 289 290 289 289 288 288 287 288 288 288 288 288 287 285 285 285 284 284 284 284 283 283 283 283
296 297 294 294 296 298 299 300 300 299 300 297 295 295 294 291 289 288 287 288 289 289 288 288 287 286 285 286 285 285 284 285 283 282 282 282 282 282 281 282 282 282 283 282
297 296 293 293 299 299 300 302 300 298 298 295 292 291 292 291 288 288 288 290 289 287 287 287 286 284 283 283 282 282 282 281 281 280 280 280 280 280 280 280 280 280 280 281
Wind_Speed
1 2 5 6 7 4 5 4 3 4 3 3 4 4 13 13 11 11 10 9 9 11 14 14 15 15 14 12 12 11 11 10 10 8 8 5 5 5 4 5 8 8 9 8
1 5 4 4 4 5 4 4 5 5 2 5 2 6 7 13 16 16 16 14 14 11 11 13 14 14 15 16 14 12 13 14 12 8 7 4 6 4 5 6 7 7 7 10
5 2 5 4 3 5 5 5 4 6 2 1 1 3 4 7 11 10 13 14 14 16 17 17 17 17 16 17 16 14 14 15 13 10 8 6 7 5 4 6 5 7 9 9
5 2 5 4 5 5 3 6 3 2 2 1 2 3 3 7 13 13 16 16 17 17 16 16 17 18 18 16 12 13 12 13 11 12 9 12 9 8 5 6 5 7 8 8
5 6 4 5 5 6 5 4 3 1 2 1 1 2 3 3 11 18 20 19 18 18 18 19 19 18 15 13 12 12 13 13 13 13 11 9 8 4 4 5 9 8 8 9
4 0 4 5 4 5 5 4 4 3 2 1 0 3 4 5 5 5 16 18 19 19 19 17 15 15 14 11 11 12 13 13 13 13 13 13 11 9 6 8 8 8 7 7
1 3 2 3 3 1 2 4 0 1 1 2 4 3 8 5 8 10 10 15 18 18 18 18 18 15 13 14 13 12 14 15 15 16 15 14 10 10 11 11 10 11 9 7
6 4 7 5 5 5 3 4 4 3 3 2 2 5 4 4 7 10 9 7 12 16 16 18 19 16 16 16 16 14 15 15 16 16 16 14 11 7 9 12 11 11 10 9
6 5 2 2 3 3 3 3 1 7 2 1 2 4 10 3 7 8 8 6 7 12 15 18 16 17 17 16 16 16 15 13 14 16 14 14 10 12 11 13 11 8 8 9
7 3 1 2 2 4 3 7 3 2 4 3 2 3 4 5 4 5 7 9 4 6 10 12 14 16 16 15 16 15 14 15 13 15 14 12 13 12 10 10 10 11 11 10
5 3 1 3 5 9 4 3 3 4 2 2 2 4 7 6 3 4 6 8 8 6 9 11 12 13 13 13 14 13 14 14 13 14 13 12 11 10 9 10 12 13 10 9
6 5 5 7 2 2 2 6 6 4 5 1 2 6 4 8 7 6 8 7 8 7 6 9 11 12 13 13 12 12 11 11 10 9 9 9 10 12 12 13 12 11 7 7
9 2 3 2 1 1 3 5 4 5 3 8 5 5 2 5 5 5 8 5 5 7 7 6 8 11 13 13 12 11 10 10 10 11 12 11 11 11 13 10 6 7 6 6
9 4 7 9 8 5 5 6 7 6 4 5 8 10 8 8 5 9 6 5 5 7 9 9 9 9 10 10 10 9 8 9 10 11 11 11 12 10 6 6 5 6 6 5
5 7 6 5 4 5 5 5 11 10 7 8 11 11 11 10 5 5 4 4 7 5 8 11 9 8 8 9 9 9 10 10 11 12 13 11 10 8 9 7 6 6 5 5
3 4 6 4 3 6 4 6 8 7 4 9 8 10 11 5 4 5 4 5 6 7 5 7 9 11 10 9 9 10 11 11 12 13 13 11 10 8 9 8 6 5 4 4
3 7 5 5 1 4 4 8 11 5 5 7 11 11 1 5 5 2 3 4 5 5 3 5 7 10 11 12 13 13 14 14 14 14 11 11 10 10 8 7 6 5 5 5
5 6 2 4 1 5 5 2 2 8 9 10 8 8 6 3 5 3 2 3 2 4 6 8 9 10 11 12 13 13 14 14 13 12 12 10 9 8 7 6 2 5 3 4
3 5 4 5 5 4 3 6 7 8 15 9 13 7 4 9 6 2 2 2 2 3 6 8 9 11 12 13 14 15 15 14 14 12 10 8 8 8 6 3 3 3 3 4
5 4 4 3 5 10 7 4 6 5 14 8 10 10 12 10 5 4 4 4 5 6 8 11 12 13 14 13 15 17 15 13 11 10 8 7 6 5 3 1 2 2 4 5
3 2 6 3 4 6 6 5 6 6 10 3 9 8 14 8 1 9 9 8 7 9 11 12 13 14 14 15 16 16 14 12 9 7 8 6 5 4 4 4 3 5 6 6
8 8 4 3 2 8 8 5 10 8 3 3 7 9 8 9 11 11 11 11 11 13 14 14 15 15 14 14 14 14 13 10 9 9 8 8 7 6 5 5 5 6 6 7
5 6 7 10 9 4 12 6 6 5 5 6 9 8 14 15 9 13 13 13 13 15 15 15 16 16 14 13 13 14 9 9 9 9 9 8 7 7 6 6 6 6 7 7
4 3 3 2 5 6 5 3 3 5 5 4 5 14 16 15 17 15 14 14 15 15 16 15 17 17 14 13 13 11 9 9 10 9 8 7 7 6 6 4 5 5 6 7
3 9 7 4 4 4 6 8 2 4 5 7 9 10 14 19 17 17 16 16 15 14 14 14 15 14 13 12 12 10 9 8 9 8 6 6 5 5 5 5 5 5 6 8
5 7 7 8 8 6 7 7 12 10 10 13 14 13 13 16 19 18 16 14 15 15 15 14 14 14 12 12 11 10 9 8 7 6 5 5 4 4 4 4 4 5 6 8
Wind_Direction
44 173 215 212 203 180 177 179 235 235 240 246 232 209 203 190 198 203 209 201 199 191 184 187 192 196 200 200 198 191 179 168 159 157 156 165 164 157 156 165 159 150 148 149
80 232 212 183 161 151 185 228 263 306 304 209 191 239 213 201 213 202 198 208 210 201 191 193 195 202 208 212 206 190 192 178 181 178 167 165 158 163 158 165 157 156 152 150
184 225 153 155 167 180 207 205 218 266 331 19 247 239 192 221 238 223 224 213 211 212 206 203 203 203 204 209 201 197 191 182 182 175 143 115 108 113 151 163 160 174 157 157
228 231 185 177 210 180 253 219 200 219 207 271 303 282 237 205 223 235 228 216 214 206 214 218 211 212 209 211 201 200 188 181 179 172 170 170 174 166 187 181 156 160 163 156
229 171 179 201 212 181 229 156 174 151 121 198 212 264 276 165 223 227 225 220 222 217 210 207 210 215 209 200 191 189 181 183 179 179 183 170 170 168 164 158 153 154 157 157
208 190 171 204 201 195 133 121 57 68 116 235 254 243 276 237 230 250 231 221 219 218 217 216 207 200 198 184 180 181 182 188 183 179 187 186 175 178 183 173 168 169 170 169
74 220 220 177 151 150 139 90 164 130 157 202 129 163 252 277 257 251 261 221 219 211 208 208 202 194 187 181 181 183 188 190 190 191 193 193 177 188 201 184 180 175 175 177
176 253 182 183 198 192 170 172 166 190 191 185 206 219 238 226 295 288 273 265 229 214 205 206 204 192 187 188 189 188 193 197 193 197 195 190 177 181 208 196 188 191 183 167
152 238 189 219 140 160 164 195 102 102 24 192 250 284 275 252 290 301 299 304 247 217 208 208 199 192 190 187 193 196 197 200 196 194 190 189 178 193 205 204 192 178 158 142
194 141 170 152 131 48 181 142 137 67 173 239 233 264 248 304 324 325 309 306 308 231 215 212 202 195 194 187 188 196 205 204 193 194 194 192 192 201 202 184 163 148 135 138
134 126 196 122 222 178 148 181 73 118 162 213 266 244 216 243 278 296 280 279 279 235 209 205 202 200 193 188 192 191 194 200 194 195 191 186 188 184 167 156 149 137 132 144
192 141 183 191 220 230 203 183 157 151 188 197 258 254 235 250 262 272 274 274 276 265 232 197 190 185 189 191 188 190 197 202 196 175 167 158 144 143 150 147 137 148 153 170
177 186 182 259 20 3 212 189 141 104 93 192 208 254 211 273 295 269 264 261 249 252 257 224 191 189 190 190 187 186 183 165 153 148 136 138 141 142 137 131 139 138 156 171
125 140 166 217 223 161 191 195 181 155 153 183 220 250 263 272 267 288 269 275 274 231 226 219 211 202 193 186 174 166 144 138 130 119 125 127 129 107 88 94 135 124 126 136
142 184 178 232 236 190 209 181 175 196 210 197 241 217 247 250 231 263 302 303 296 270 219 218 217 188 162 153 145 133 128 124 128 129 126 118 107 97 104 117 118 96 137 145
181 200 159 205 123 203 223 222 186 216 217 245 254 248 231 241 249 250 291 323 307 303 281 203 176 159 155 145 136 132 135 137 128 122 121 114 103 121 129 118 95 160 150 166
184 138 131 221 197 144 306 210 196 194 206 202 227 245 200 238 223 253 309 329 319 355 14 132 144 145 141 142 139 140 143 139 129 118 117 120 124 122 116 121 159 148 206 225
159 130 97 160 123 207 245 116 162 221 246 220 255 244 219 221 118 86 3 302 35 74 96 105 116 119 121 129 125 125 125 117 110 111 115 118 116 117 128 153 157 246 233 241
193 131 126 155 193 306 242 196 174 178 260 212 230 231 180 138 149 125 37 24 43 90 91 95 105 113 117 118 124 120 116 113 114 120 120 124 128 130 146 199 247 257 250 264
91 60 132 146 180 211 217 208 148 142 278 210 191 186 159 155 174 165 145 115 100 95 100 106 107 110 110 118 120 114 113 111 112 119 118 122 144 138 143 207 262 263 265 274
113 51 180 157 217 283 247 162 153 148 257 224 201 170 162 184 68 117 126 104 99 102 104 106 104 105 112 119 114 108 109 106 106 104 112 111 92 68 43 23 8 333 322 313
168 154 176 107 145 250 155 93 179 206 179 195 175 162 141 121 122 121 122 122 120 115 113 110 108 105 106 109 107 103 99 103 100 97 90 73 60 52 39 19 5 350 341 324
236 198 182 189 205 210 197 201 192 168 154 192 168 153 143 140 150 145 138 131 125 120 115 112 106 97 86 89 96 95 91 100 97 89 76 65 59 47 34 19 4 349 345 337
222 199 189 133 214 224 246 258 232 194 200 163 144 150 153 148 151 145 140 138 133 129 121 117 109 101 93 86 81 84 84 90 88 82 68 53 47 27 26 21 13 2 356 344
178 146 160 265 282 282 258 254 268 203 156 129 119 156 153 144 149 146 144 140 133 126 121 116 111 107 101 95 84 75 71 82 86 79 66 50 40 28 22 24 16 12 12 352
193 176 159 213 207 187 191 196 168 192 189 159 140 128 144 148 143 144 139 136 130 125 123 114 111 109 104 95 86 73 66 67 77 76 60 42 36 29 25 18 17 42 359 348